Regional Weather Roundup
Issued by NWS Portland, ME

Current Version | Previous Version | Text Only | Print | Product List | Glossary Off
Versions: 1 2 3 4 5 6 7 8 9 10 11 12 13 14 15 16 17 18 19 20 21 22 23 24 25 26 27 28 29 30 31 32 33 34 35 36 37 38 39 40 41 42 43 44 45 46 47 48 49 50
000 ASUS41 KGYX 100610 RWRGYX WEATHER ROUNDUP FOR MAINE AND NEW HAMPSHIRE NATIONAL WEATHER SERVICE GRAY ME 200 AM EDT THU JUL 10 2014 MEZ002-005-006-010-012-015-018-020-021-024-026-027-029-100700- MAINE CITY SKY/WX TMP DP RH WIND PRES REMARKS PORTLAND CLOUDY 66 63 90 SW3 29.90F 6HR MIN TEMP: 66; 6HR MAX TEMP: 73; 6HR PCP: 0.03; SANFORD MOCLDY 64 61 88 SW3 29.93R BAR HARBOR MOCLDY 64 63 94 SW6 29.90R WISCASSET LGT RAIN 67 65 93 NE3 29.88F 6HR MIN TEMP: 66; 6HR MAX TEMP: 73; 6HR PCP: 0.01; ROCKLAND CLOUDY 66 63 88 W9 29.89R FRYEBURG PTCLDY 65 63 93 SW5 29.92S 6HR MIN TEMP: 64; 6HR MAX TEMP: 70; 6HR PCP: 0.08; LEWISTONAUBURN CLOUDY 66 61 82 SW6 29.90F AUGUSTA CLOUDY 68 63 84 SE3 29.90 6HR MIN TEMP: 67; 6HR MAX TEMP: 75; 6HR PCP: TRACE; WATERVILLE CLOUDY 66 64 94 W5 29.86R BANGOR LGT RAIN 66 61 84 S3 29.88 6HR MIN TEMP: 66; 6HR MAX TEMP: 78; 6HR PCP: TRACE; GREENVILLE N/A 64 58 80 VRB7 29.91R 6HR MIN TEMP: 64; 6HR MAX TEMP: 70; MILLINOCKET CLOUDY 69 59 70 CALM 29.89 6HR MIN TEMP: 67; 6HR MAX TEMP: 76; 6HR PCP: TRACE; HOULTON CLOUDY 66 62 87 W6 29.85R 6HR MIN TEMP: 62; 6HR MAX TEMP: 73; PRESQUE ISLE CLOUDY 64 55 72 SW5 29.88S 6HR MIN TEMP: 63; 6HR MAX TEMP: 75; FRENCHVILLE CLOUDY 63 52 67 W10 29.86R 6HR MIN TEMP: 63; 6HR MAX TEMP: 70; CARIBOU CLOUDY 62 59 90 SW5 29.86R 6HR MIN TEMP: 62; 6HR MAX TEMP: 74; 6HR PCP: 0.04; $$ NHZ002-005-008-009-011-012-014-100700- NEW HAMPSHIRE CITY SKY/WX TMP DP RH WIND PRES REMARKS PORTSMOUTH MOCLDY 67 65 91 SW8 29.92S ROCHESTER MOCLDY 65 63 93 CALM 29.93R 6HR MIN TEMP: 65; 6HR MAX TEMP: 77; 6HR PCP: 0.25; NASHUA MOCLDY 66 65 97 CALM 29.95S FOG MANCHESTER MOCLDY 67 65 93 CALM 29.93S 6HR MIN TEMP: 66; 6HR MAX TEMP: 79; 6HR PCP: 0.40; CONCORD PTCLDY 64 63 96 W5 29.96R 6HR MIN TEMP: 64; 6HR MAX TEMP: 71; 6HR PCP: TRACE; LACONIA CLEAR 64 61 88 SW6 29.94S PLYMOUTH FOG 63 62 96 CALM 29.95R VSB 1/4 BERLIN NOT AVBL WHITEFIELD CLOUDY 63 60 90 CALM 29.95S 6HR MIN TEMP: 62; 6HR MAX TEMP: 72; 6HR PCP: TRACE; JAFFREY CLOUDY 64 62 93 CALM 30.01R 6HR MIN TEMP: 64; 6HR MAX TEMP: 70; 6HR PCP: 0.08; LEBANON PTCLDY 63 60 90 S3 29.95S 6HR MIN TEMP: 63; 6HR MAX TEMP: 70; 6HR PCP: 0.05; MT WASHINGTON DRZL/FOG 46 46 100 W47G55 N/A VSB 0 6HR MIN TEMP: 46; 6HR MAX TEMP: 51; 6HR PCP: 0.01; $$ VTZ005-007-008-100700- VERMONT CITY SKY/WX TMP DP RH WIND PRES REMARKS ST JOHNSBURY N/A 62 61 96 MISG 29.93S MONTPELIER MOCLDY 61 57 87 N5 30.01R BURLINGTON CLEAR 65 53 65 W6 29.96R $$ MAZ007-012-024-CTZ003-RIZ002-NYZ038-NYZ072-100700- SOUTHERN NEW ENGLAND AND NY CITY SKY/WX TMP DP RH WIND PRES REMARKS BOSTON MOCLDY 74 59 59 SW10 29.94S WORCESTER CLOUDY 63 61 93 W9 29.99R NANTUCKET LGT RAIN 70 68 94 W20 29.99R VSB 1 PROVIDENCE CLOUDY 72 68 87 SW3 29.96S HARTFORD MOCLDY 66 62 87 CALM 29.98R ALBANY PTCLDY 62 57 83 W3 30.01S NEW YORK CITY MOCLDY 75 62 64 NW3 29.97R $$ ANZ081-ANZ082-ANZ150-NHZ014-MEZ023>029-100700- COASTAL MARINE OBSERVATIONS STATION/POSITION TIME TEMP WIND PRES WAVE AIR SEA DIR/SP/G HT/PER (UTC) (F) (DEG/KT/KT) (MB) (FT/S) MOUNT DESERT ROC 0600 57 1012.4S MATINICUS ROCK 0500 230/ 19/ 20 1012.2F PORTLAND WX BUOY 0600 60 56 190/ 8/ 10 1012.8F 3/ 5 WELLS 0600 64 51 220/ 4/ 5 1012.4R ISLE OF SHOALS 0500 69 220/ 10/ 10 1012.5F JEFFREYS LEDGE 0600 62 N/A 3/ 9 CASHES LEDGE BUO 0600 64 61 240/ 14/ 17 1012.8R 4/ 8 $$ .............KEY.............. WCI - WIND CHILL TC - TEMPERATURE IN CELSIUS VSB - VISIBILITY IN MILES HX - HEAT INDEX FAIR- INDICATES FEW OR NO CLOUDS BELOW 12,000 FT, WITH NO SIGNIFICANT WEATHER AND/OR OBSTRUCTIONS TO VISIBILITY.

USA.gov is the U.S. government's official web portal to all federal, state and local government web resources and services.